| time (UTC) | temp F | wind direction | speed MPH | gust MPH | rain 1hr in | rain 24hr in | rain mn in | humidity % | barometer mb |
| 20260903161603 | 59 | 110 | 1.0 | 2.0 | 0.05 | 0.12 | 0.05 | 92 | 1005.0 |
| 20260903161103 | 59 | 0 | 0.0 | 2.0 | 0.05 | 0.12 | 0.05 | 92 | 1005.1 |
| 20260903160115 | 59 | 0 | 0.0 | 2.0 | 0.05 | 0.12 | 0.05 | 91 | 1005.2 |
| 20260903154103 | 59 | 107 | 1.0 | 2.0 | 0.03 | 0.10 | 0.03 | 90 | 1005.4 |
| 20260903153603 | 59 | 123 | 1.0 | 2.0 | 0.02 | 0.09 | 0.02 | 90 | 1005.4 |
| 20260903153103 | 60 | 149 | 1.0 | 2.0 | 0.02 | 0.09 | 0.02 | 90 | 1005.5 |
| 20260903150115 | 60 | 139 | 2.0 | 2.0 | 0.00 | 0.07 | 0.00 | 87 | 1005.8 |
| 20260903144603 | 61 | 0 | 0.0 | 6.0 | 0.00 | 0.07 | 0.00 | 85 | 1006.0 |
| 20260903144104 | 61 | 151 | 1.0 | 6.0 | 0.00 | 0.07 | 0.00 | 84 | 1006.1 |
| 20260903143103 | 61 | 172 | 1.0 | 8.0 | 0.00 | 0.07 | 0.00 | 82 | 1006.2 |
| 20260903140603 | 61 | 169 | 5.0 | 6.0 | 0.00 | 0.07 | 0.00 | 81 | 1006.5 |
| 20260903134103 | 61 | 138 | 6.0 | 5.0 | 0.00 | 0.07 | 0.00 | 80 | 1006.7 |
| 20260903133103 | 61 | 216 | 3.0 | 6.0 | 0.00 | 0.07 | 0.00 | 79 | 1006.8 |
| 20260903131603 | 62 | 221 | 2.0 | 6.0 | 0.00 | 0.07 | 0.00 | 78 | 1006.9 |
| 20260903131103 | 62 | 208 | 5.0 | 6.0 | 0.00 | 0.07 | 0.00 | 78 | 1006.9 |
| 20260903130603 | 62 | 254 | 3.0 | 8.0 | 0.00 | 0.07 | 0.00 | 78 | 1007.0 |
| 20260903124603 | 61 | 229 | 1.0 | 7.0 | 0.00 | 0.07 | 0.00 | 78 | 1007.0 |
| 20260903120603 | 61 | 247 | 1.0 | 7.0 | 0.00 | 0.07 | 0.00 | 79 | 1007.5 |
| 20260903120115 | 61 | 137 | 2.0 | 7.0 | 0.00 | 0.07 | 0.00 | 79 | 1007.6 |
| 20260903114603 | 61 | 234 | 3.0 | 5.0 | 0.00 | 0.07 | 0.00 | 78 | 1007.8 |
| 20260903114103 | 61 | 193 | 6.0 | 5.0 | 0.00 | 0.07 | 0.00 | 78 | 1007.9 |
| 20260903113603 | 61 | 198 | 3.0 | 7.0 | 0.00 | 0.07 | 0.00 | 77 | 1007.9 |
| 20260903111604 | 61 | 220 | 3.0 | 8.0 | 0.00 | 0.07 | 0.00 | 73 | 1008.2 |
| 20260903111103 | 61 | 204 | 3.0 | 8.0 | 0.00 | 0.07 | 0.00 | 73 | 1008.2 |
| 20260903110603 | 61 | 199 | 3.0 | 8.0 | 0.00 | 0.07 | 0.00 | 73 | 1008.3 |
| 20260903104603 | 61 | 159 | 2.0 | 7.0 | 0.00 | 0.07 | 0.00 | 73 | 1008.6 |
| 20260903104104 | 61 | 176 | 3.0 | 6.0 | 0.00 | 0.07 | 0.00 | 74 | 1008.5 |
| 20260903101103 | 59 | 188 | 1.0 | 7.0 | 0.00 | 0.07 | 0.00 | 76 | 1008.7 |
| 20260903100115 | 59 | 205 | 7.0 | 12.0 | 0.00 | 0.07 | 0.00 | 78 | 1008.9 |
| 20260903094604 | 59 | 242 | 9.0 | 12.0 | 0.00 | 0.07 | 0.00 | 78 | 1009.1 |
| 20260903094103 | 59 | 223 | 3.0 | 9.0 | 0.00 | 0.07 | 0.00 | 78 | 1009.0 |
| 20260903093603 | 59 | 202 | 2.0 | 9.0 | 0.00 | 0.07 | 0.00 | 78 | 1008.9 |
| 20260903093104 | 59 | 223 | 2.0 | 10.0 | 0.00 | 0.07 | 0.00 | 78 | 1008.9 |
| 20260903090603 | 58 | 195 | 5.0 | 9.0 | 0.00 | 0.07 | 0.00 | 76 | 1009.2 |
| 20260903090115 | 58 | 218 | 2.0 | 9.0 | 0.00 | 0.07 | 0.00 | 76 | 1009.2 |
| 20260903084104 | 58 | 290 | 8.0 | 13.0 | 0.00 | 0.07 | 0.00 | 75 | 1009.4 |
| 20260903083604 | 58 | 261 | 3.0 | 10.0 | 0.00 | 0.07 | 0.00 | 75 | 1009.4 |
| 20260903081603 | 59 | 250 | 9.0 | 12.0 | 0.00 | 0.07 | 0.00 | 74 | 1009.5 |
| 20260903074603 | 58 | 188 | 9.0 | 13.0 | 0.00 | 0.07 | 0.00 | 73 | 1009.5 |
| 20260903073603 | 58 | 280 | 10.0 | 13.0 | 0.00 | 0.07 | 0.00 | 72 | 1009.5 |
| 20260903073104 | 58 | 139 | 3.0 | 12.0 | 0.00 | 0.07 | 0.00 | 73 | 1009.5 |
| 20260903071603 | 58 | 220 | 6.0 | 7.0 | 0.00 | 0.07 | 0.00 | 75 | 1009.6 |
| 20260903070603 | 57 | 250 | 5.0 | 12.0 | 0.00 | 0.07 | 0.00 | 76 | 1009.7 |
| 20260903064103 | 56 | 234 | 2.0 | 7.0 | 0.00 | 0.07 | 0.00 | 77 | 1009.6 |
| 20260903054603 | 54 | 220 | 1.0 | 6.0 | 0.00 | 0.07 | 0.00 | 77 | 1010.0 |
| 20260903044104 | 53 | 197 | 2.0 | 6.0 | 0.00 | 0.07 | 0.00 | 76 | 1010.2 |
| 20260903043603 | 53 | 207 | 1.0 | 6.0 | 0.00 | 0.07 | 0.00 | 76 | 1010.2 |
| 20260903043104 | 53 | 286 | 1.0 | 8.0 | 0.00 | 0.07 | 0.00 | 76 | 1010.3 |
| 20260903041603 | 53 | 232 | 1.0 | 8.0 | 0.00 | 0.07 | 0.00 | 75 | 1010.3 |
| 20260903040604 | 53 | 205 | 3.0 | 7.0 | 0.00 | 0.09 | 0.00 | 74 | 1010.4 |
| 20260903040115 | 53 | 251 | 2.0 | 7.0 | 0.00 | 0.09 | 0.00 | 74 | 1010.4 |
| 20260903034104 | 53 | 212 | 3.0 | 10.0 | 0.00 | 0.09 | 0.00 | 74 | 1010.5 |
| 20260903030603 | 53 | 228 | 1.0 | 8.0 | 0.00 | 0.09 | 0.00 | 72 | 1010.6 |
| 20260903024603 | 53 | 215 | 9.0 | 6.0 | 0.00 | 0.10 | 0.00 | 72 | 1010.7 |
| 20260903024103 | 53 | 228 | 2.0 | 6.0 | 0.00 | 0.13 | 0.00 | 72 | 1010.8 |
| 20260903023603 | 54 | 263 | 2.0 | 8.0 | 0.00 | 0.13 | 0.00 | 73 | 1010.7 |
| 20260903023104 | 54 | 227 | 2.0 | 14.0 | 0.00 | 0.14 | 0.00 | 73 | 1010.7 |
| 20260903021104 | 54 | 264 | 2.0 | 12.0 | 0.00 | 0.14 | 0.00 | 73 | 1010.8 |
| 20260903020603 | 54 | 246 | 2.0 | 9.0 | 0.00 | 0.14 | 0.00 | 72 | 1010.8 |
| 20260903020115 | 55 | 273 | 1.0 | 12.0 | 0.00 | 0.14 | 0.00 | 72 | 1010.9 |
| 20260903014104 | 55 | 300 | 2.0 | 10.0 | 0.00 | 0.14 | 0.00 | 72 | 1011.0 |
| 20260903011604 | 55 | 235 | 3.0 | 9.0 | 0.00 | 0.14 | 0.00 | 72 | 1011.0 |
| 20260903011105 | 55 | 256 | 2.0 | 5.0 | 0.00 | 0.14 | 0.00 | 72 | 1011.0 |
| 20260903003603 | 55 | 262 | 9.0 | 14.0 | 0.00 | 0.14 | 0.00 | 70 | 1011.1 |
| 20260903003104 | 55 | 245 | 8.0 | 14.0 | 0.00 | 0.14 | 0.00 | 70 | 1011.2 |
| 20260903001103 | 55 | 282 | 3.0 | 13.0 | 0.00 | 0.14 | 0.00 | 70 | 1011.2 |
| 20260903000604 | 55 | 264 | 8.0 | 13.0 | 0.00 | 0.14 | 0.00 | 70 | 1011.1 |
| 20260903000115 | 55 | 244 | 2.0 | 14.0 | 0.00 | 0.14 | 0.00 | 70 | 1011.2 |
| 20260902234603 | 56 | 224 | 8.0 | 12.0 | 0.00 | 0.14 | 0.00 | 71 | 1011.1 |
| 20260902233603 | 56 | 214 | 1.0 | 16.0 | 0.00 | 0.14 | 0.00 | 70 | 1011.1 |
| 20260902233104 | 56 | 231 | 3.0 | 16.0 | 0.00 | 0.14 | 0.00 | 70 | 1011.1 |
| 20260902230604 | 56 | 215 | 6.0 | 8.0 | 0.00 | 0.14 | 0.00 | 70 | 1011.4 |
| 20260902224604 | 56 | 159 | 8.0 | 12.0 | 0.07 | 0.14 | 0.00 | 71 | 1011.4 |
| 20260902221107 | 56 | 252 | 5.0 | 13.0 | 0.07 | 0.14 | 0.00 | 71 | 1011.4 |
| 20260902220603 | 56 | 243 | 6.0 | 10.0 | 0.07 | 0.14 | 0.00 | 72 | 1011.4 |
| 20260902214104 | 56 | 256 | 6.0 | 9.0 | 0.00 | 0.07 | 0.07 | 73 | 1011.5 |
| 20260902213604 | 56 | 239 | 7.0 | 9.0 | 0.00 | 0.07 | 0.07 | 73 | 1011.4 |
| 20260902204604 | 57 | 287 | 2.0 | 12.0 | 0.00 | 0.07 | 0.07 | 74 | 1011.5 |
| 20260902201104 | 57 | 244 | 5.0 | 12.0 | 0.00 | 0.07 | 0.07 | 73 | 1011.6 |
| 20260902200604 | 57 | 197 | 5.0 | 13.0 | 0.00 | 0.07 | 0.07 | 73 | 1011.6 |
| 20260902200115 | 57 | 186 | 6.0 | 13.0 | 0.00 | 0.07 | 0.07 | 73 | 1011.6 |
| 20260902193104 | 57 | 140 | 1.0 | 10.0 | 0.00 | 0.07 | 0.07 | 75 | 1011.6 |
| 20260902191603 | 57 | 0 | 5.0 | 9.0 | 0.00 | 0.07 | 0.07 | 77 | 1011.5 |
| 20260902191103 | 57 | 217 | 2.0 | 10.0 | 0.00 | 0.07 | 0.07 | 77 | 1011.5 |
| 20260902190604 | 57 | 266 | 12.0 | 10.0 | 0.00 | 0.07 | 0.07 | 77 | 1011.5 |
| 20260902183604 | 57 | 268 | 2.0 | 8.0 | 0.00 | 0.07 | 0.07 | 76 | 1011.5 |
| 20260902181604 | 58 | 214 | 5.0 | 12.0 | 0.00 | 0.07 | 0.07 | 74 | 1011.4 |
| 20260902181103 | 58 | 263 | 2.0 | 10.0 | 0.00 | 0.07 | 0.07 | 74 | 1011.4 |
| 20260902174603 | 59 | 178 | 3.0 | 12.0 | 0.00 | 0.07 | 0.07 | 74 | 1011.4 |
| 20260902174104 | 60 | 288 | 6.0 | 9.0 | 0.00 | 0.07 | 0.07 | 74 | 1011.4 |
| 20260902171604 | 60 | 248 | 5.0 | 12.0 | 0.00 | 0.07 | 0.07 | 74 | 1011.4 |
| 20260902171104 | 60 | 269 | 8.0 | 13.0 | 0.00 | 0.07 | 0.07 | 74 | 1011.3 |
| 20260902170604 | 60 | 319 | 2.0 | 13.0 | 0.00 | 0.07 | 0.07 | 74 | 1011.4 |
| 20260902170116 | 60 | 277 | 5.0 | 8.0 | 0.00 | 0.07 | 0.07 | 74 | 1011.4 |
| 20260902163604 | 61 | 314 | 6.0 | 13.0 | 0.00 | 0.07 | 0.07 | 69 | 1011.4 |
| 20260902163103 | 61 | 303 | 5.0 | 15.0 | 0.00 | 0.07 | 0.07 | 68 | 1011.3 |